Location: Bourg-d�Oueil
(42.8588°N, 0.4991°E)
Time: 02:31:23
(UTC+00:00)

Cosmos 2227 - Pass Details

Date: 16 June 2021
Orbit: 835 x 860 km, 71.0° (Epoch: 25 July)

Event Time Altitude Azimuth Distance (km) Brightness Sun altitude
Rises 20:02:50 0° 338° (NNW) 3,394 8.5 -4.4°
Reaches altitude 10° 20:05:20 10° 342° (NNW) 2,455 7.6 -4.8°
Maximum altitude 20:10:53 59° 62° (ENE) 966 4.4 -5.5°
Drops below altitude 10° 20:16:24 10° 141° (SE) 2,443 6.0 -6.3°
Enters shadow 20:17:07 - 143° (SE) 2,708 6.2 -6.4°
